Soldotna, AK

3:15 PM AKST on December 07, 2019 (GMT -0900)
Soldotna

Weather History for PASX - October, 2019

Change the Weather History Date:

Wednesday, October 30, 2019

  Actual Average Record
Temperature  
Mean Temperature 39 °F -  
Max Temperature 48 °F 34 °F 48 °F (1979)
Min Temperature 30 °F 21 °F -6 °F (1982)
Degree Days  
Heating Degree Days 26    
Moisture  
Dew Point 36 °F    
Average Humidity 82    
Maximum Humidity 96    
Minimum Humidity 59    
Precipitation  
Precipitation 0.00 in - - ()
Sea Level Pressure  
Sea Level Pressure 30.07 in    
Wind  
Wind Speed 5 mph (SSE)    
Max Wind Speed 12 mph    
Max Gust Speed 16 mph    
Visibility 10 miles    
Events      
Averages and records for this station are not official NWS values.
T = Trace of Precipitation, MM = Missing Value Source: NWS Daily Summary

Daily Weather History Graph

Daily Weather History Graph

Search for Another Location

Airport or City:

Astronomy

Oct. 30, 2019 Rise Set
Actual Time 9:23 AM AKDT 6:11 PM AKDT
Civil Twilight 8:37 AM AKDT 6:56 PM AKDT
Nautical Twilight 7:47 AM AKDT 7:46 PM AKDT
Astronomical Twilight 6:58 AM AKDT 8:35 PM AKDT
Moon 1:00 PM AKDT (10/30) 7:41 PM AKDT (10/30)
Length of Visible Light 10h 18m
Length of Day
8h 47m
Waxing Crescent, 9% of the Moon is Illuminated
Oct 30
Waxing Crescent
Nov 4
First Quarter
Nov 12
Full
Nov 19
Last Quarter
Nov 26
New

Hourly Weather History & Observations

Time (AKDT) Temp. Windchill Dew Point Humidity Pressure Visibility Wind Dir Wind Speed Gust Speed Precip Events Conditions
12:56 AM 42.1 °F 40.2 °F 39.9 °F 92% 29.96 in 10.0 mi SSE 3.5 mph - N/A   Overcast
1:56 AM 42.1 °F 38.4 °F 39.0 °F 89% 29.97 in 10.0 mi South 5.8 mph - N/A   Overcast
3:56 AM 39.9 °F 37.8 °F 37.9 °F 93% 29.99 in 10.0 mi South 3.5 mph - N/A   Mostly Cloudy
4:56 AM 34.0 °F - 33.1 °F 96% 29.99 in 10.0 mi Calm Calm - N/A   Clear
5:56 AM 37.9 °F 34.4 °F 36.0 °F 93% 30.00 in 10.0 mi ESE 4.6 mph - N/A   Clear
6:56 AM 39.0 °F 34.8 °F 37.0 °F 93% 30.00 in 10.0 mi SSE 5.8 mph - N/A   Clear
7:56 AM 39.9 °F 34.5 °F 37.0 °F 89% 30.01 in 10.0 mi South 8.1 mph - N/A   Clear
8:56 AM 41.0 °F 36.4 °F 37.0 °F 86% 30.03 in 10.0 mi South 6.9 mph - N/A   Clear
9:56 AM 42.1 °F 37.1 °F 37.0 °F 82% 30.04 in 10.0 mi South 8.1 mph - N/A   Clear
10:56 AM 43.0 °F 38.8 °F 37.9 °F 82% 30.06 in 10.0 mi SSE 6.9 mph - N/A   Clear
11:56 AM 45.0 °F 40.6 °F 37.9 °F 76% 30.07 in 10.0 mi South 8.1 mph - N/A   Clear
12:56 PM 46.9 °F - 37.9 °F 71% 30.08 in 10.0 mi South 8.1 mph - N/A   Clear
1:56 PM 48.0 °F - 37.0 °F 66% 30.09 in 10.0 mi Variable 6.9 mph - N/A   Clear
2:56 PM 48.9 °F - 36.0 °F 61% 30.10 in 10.0 mi SSW 11.5 mph 16.1 mph N/A   Clear
3:56 PM 48.9 °F - 35.1 °F 59% 30.10 in 10.0 mi SW 6.9 mph - N/A   Clear
4:56 PM 48.9 °F - 36.0 °F 61% 30.11 in 10.0 mi SSW 8.1 mph - N/A   Clear
5:56 PM 46.0 °F 43.9 °F 36.0 °F 68% 30.10 in 10.0 mi WSW 4.6 mph - N/A   Clear
6:56 PM 44.1 °F 42.5 °F 37.0 °F 76% 30.13 in 10.0 mi Variable 3.5 mph - N/A   Clear
7:56 PM 36.0 °F 33.3 °F 33.1 °F 89% 30.15 in 10.0 mi East 3.5 mph - N/A   Clear
8:56 PM 30.9 °F - 30.0 °F 96% 30.17 in 10.0 mi Calm Calm - N/A   Clear
9:56 PM 32.0 °F 27.5 °F 30.9 °F 96% 30.17 in 10.0 mi East 4.6 mph - N/A   Clear
11:56 PM 30.0 °F 26.5 °F 28.9 °F 96% 30.19 in 10.0 mi ENE 3.5 mph - N/A   Clear